TimePDT,TemperatureF,Dew PointF,Humidity,Sea Level PressureIn,VisibilityMPH,Wind Direction,Wind SpeedMPH,Gust SpeedMPH,PrecipitationIn,Events,Conditions,WindDirDegrees,DateUTC
12:50 AM,49.3,30.4,48,29.95,15.0,WSW,4.6,-,N/A,,Clear,250,2012-10-09 07:50:00
1:50 AM,46.4,32.5,59,29.97,15.0,ESE,3.5,-,N/A,,Clear,110,2012-10-09 08:50:00
3:50 AM,40.8,30.2,66,29.99,15.0,West,5.8,-,N/A,,Clear,280,2012-10-09 10:50:00
4:50 AM,42.4,35.4,76,29.99,15.0,NNE,6.9,-,N/A,,Clear,30,2012-10-09 11:50:00
5:50 AM,43.2,35.4,74,30.01,15.0,NNE,3.5,-,N/A,,Clear,30,2012-10-09 12:50:00
6:50 AM,42.3,35.8,78,30.03,15.0,South,6.9,-,N/A,,Clear,170,2012-10-09 13:50:00
7:50 AM,43.2,33.6,69,30.04,15.0,SSE,3.5,-,N/A,,Clear,150,2012-10-09 14:50:00
8:50 AM,50.9,35.4,55,30.05,15.0,East,4.6,-,N/A,,Partly Cloudy,80,2012-10-09 15:50:00
9:50 AM,55.4,35.6,47,30.06,15.0,ENE,4.6,-,N/A,,Partly Cloudy,60,2012-10-09 16:50:00
10:50 AM,62.1,36.5,39,30.06,15.0,North,3.5,-,N/A,,Partly Cloudy,360,2012-10-09 17:50:00
11:50 AM,66.7,36.7,33,30.06,12.0,NNE,4.6,-,N/A,,Partly Cloudy,20,2012-10-09 18:50:00
12:50 PM,71.8,36.5,28,30.04,15.0,ENE,4.6,-,N/A,,Scattered Clouds,60,2012-10-09 19:50:00
1:50 PM,73.4,36.7,26,30.04,15.0,ENE,3.5,-,N/A,,Partly Cloudy,60,2012-10-09 20:50:00
2:50 PM,75.7,37.0,25,30.01,15.0,South,4.6,-,N/A,,Partly Cloudy,190,2012-10-09 21:50:00
3:50 PM,75.4,36.5,24,30.00,15.0,ESE,4.6,-,N/A,,Partly Cloudy,110,2012-10-09 22:50:00
4:50 PM,74.8,37.0,25,29.98,15.0,ESE,4.6,-,N/A,,Partly Cloudy,120,2012-10-09 23:50:00
5:50 PM,70.3,37.0,30,29.96,15.0,SE,5.8,-,N/A,,Partly Cloudy,140,2012-10-10 00:50:00
6:50 PM,63.7,37.9,39,29.96,15.0,SE,3.5,-,N/A,,Partly Cloudy,140,2012-10-10 01:50:00
10:50 PM,55.6,35.4,47,29.96,15.0,NNW,4.6,-,N/A,,Clear,330,2012-10-10 05:50:00
11:50 PM,48.9,34.9,58,29.96,15.0,East,2.3,-,N/A,,Clear,80,2012-10-10 06:50:00